Tracking 29528 objects as of 13-Sep-2024
HD Live streaming from Space Station
objects crossing your sky now

FENGYUN 1C DEB

Track FENGYUN 1C DEB now!
10-day predictions


NORAD ID: 30327
Int'l Code: 1999-025AAN
Perigee: 765.9 km
Apogee: 956.1 km
Inclination: 98.5 °
Period: 102.0 minutes
Semi major axis: 7231 km
RCS: 0.0095 m2 (small)
Launch date: May 10, 1999
Source: People's Republic of China (PRC)
Launch site: Taiyaun Space Center, China (TSC)

Note: This is SATELLITE DEBRIS
Your satellite tracking list
Your tracking list is empty




NASA's NSSDC Master Catalog

Two Line Element Set (TLE):
1 30327U 99025AAN 24256.53584916  .00040614  00000-0  20510-1 0  9994
2 30327  98.4535 168.3547 0131481  18.6724 156.3872 14.11618000899898
Source of the keplerian elements: AFSPC